Change the Weather History Date:

Sunday, November 13, 2011

  Actual Average Record
Temperature  
Mean Temperature 65 °F -  
Max Temperature 73 °F 53 °F 82 °F (1999)
Min Temperature 57 °F 36 °F 15 °F (2013)
Growing Degree Days 15 (Base 50)    
Moisture  
Dew Point 54 °F    
Average Humidity 71    
Maximum Humidity 88    
Minimum Humidity 53    
Precipitation  
Precipitation 0.00 in - - ()
Sea Level Pressure  
Sea Level Pressure 29.68 in    
Wind  
Wind Speed 19 mph (SSW)    
Max Wind Speed 30 mph    
Max Gust Speed 40 mph    
Visibility 10 miles    
Events      
Averages and records for this station are not official NWS values.
T = Trace of Precipitation, MM = Missing Value Source: NWS Daily Summary

Daily Weather History Graph

Daily Weather History Graph

Search for Another Location

Airport or City:

Trip Planner

Search our weather history database for the weather conditions in past years. The results will help you decide how hot, cold, wet, or windy it might be!

Date:

Astronomy

Nov. 13, 2011 Rise Set
Actual Time 6:39 AM CST 4:52 PM CST
Civil Twilight 6:11 AM CST 5:19 PM CST
Nautical Twilight 5:40 AM CST 5:51 PM CST
Astronomical Twilight 5:09 AM CST 6:22 PM CST
Moon 7:02 PM CST (11/13) 9:10 AM CST (11/13)
Length of Visible Light 11h 08m
Length of Day
10h 12m
Waning Gibbous, 92% of the Moon is Illuminated
Nov 13
Waning Gibbous
Nov 18
Last Quarter
Nov 25
New
Dec 2
First Quarter
Dec 10
Full

Hourly Weather History & Observations

Time (CST) Temp. Dew Point Humidity Pressure Visibility Wind Dir Wind Speed Gust Speed Precip Events Conditions
12:35 AM 57.2 °F 48.2 °F 72% 29.73 in 10.0 mi SSW 18.4 mph 28.8 mph N/A   Partly Cloudy
12:55 AM 57.2 °F 48.2 °F 72% 29.72 in 10.0 mi SSW 23.0 mph 29.9 mph N/A   Clear
1:15 AM 57.2 °F 48.2 °F 72% 29.72 in 10.0 mi SSW 20.7 mph 25.3 mph N/A   Clear
1:35 AM 57.2 °F 48.2 °F 72% 29.72 in 10.0 mi SSW 19.6 mph 26.5 mph N/A   Clear
2:15 AM 57.2 °F 48.2 °F 72% 29.72 in 10.0 mi SSW 19.6 mph 26.5 mph N/A   Partly Cloudy
2:35 AM 57.2 °F 48.2 °F 72% 29.71 in 10.0 mi SSW 17.3 mph 21.9 mph N/A   Scattered Clouds
2:55 AM 57.2 °F 50.0 °F 77% 29.71 in 10.0 mi SSW 16.1 mph 23.0 mph N/A   Scattered Clouds
3:15 AM 57.2 °F 50.0 °F 77% 29.70 in 10.0 mi South 16.1 mph 24.2 mph N/A   Mostly Cloudy
3:35 AM 57.2 °F 50.0 °F 77% 29.70 in 10.0 mi SSW 17.3 mph 27.6 mph N/A   Mostly Cloudy
3:55 AM 57.2 °F 50.0 °F 77% 29.69 in 10.0 mi South 17.3 mph 24.2 mph N/A   Mostly Cloudy
4:15 AM 57.2 °F 51.8 °F 82% 29.69 in 10.0 mi SSW 19.6 mph 26.5 mph N/A   Mostly Cloudy
4:35 AM 57.2 °F 51.8 °F 82% 29.69 in 10.0 mi South 20.7 mph 31.1 mph N/A   Mostly Cloudy
4:55 AM 57.2 °F 51.8 °F 82% 29.68 in 10.0 mi South 25.3 mph 32.2 mph N/A   Mostly Cloudy
5:15 AM 57.2 °F 51.8 °F 82% 29.66 in 10.0 mi South 24.2 mph 29.9 mph N/A   Scattered Clouds
5:35 AM 59.0 °F 51.8 °F 77% 29.65 in 10.0 mi SSW 21.9 mph 40.3 mph N/A   Scattered Clouds
5:55 AM 59.0 °F 51.8 °F 77% 29.64 in 10.0 mi South 27.6 mph 40.3 mph N/A   Mostly Cloudy
6:15 AM 59.0 °F 51.8 °F 77% 29.62 in 10.0 mi South 29.9 mph 38.0 mph N/A   Overcast
6:55 AM 59.0 °F 51.8 °F 77% 29.62 in 10.0 mi SSW 25.3 mph 36.8 mph N/A   Overcast
7:15 AM 59.0 °F 53.6 °F 82% 29.63 in 10.0 mi SSW 24.2 mph 33.4 mph N/A   Overcast
7:35 AM 60.8 °F 53.6 °F 77% 29.64 in 10.0 mi SSW 21.9 mph 31.1 mph N/A   Overcast
7:55 AM 60.8 °F 53.6 °F 77% 29.65 in 10.0 mi SSW 21.9 mph 32.2 mph N/A   Overcast
8:35 AM 62.6 °F 53.6 °F 72% 29.65 in 10.0 mi SSW 24.2 mph 33.4 mph N/A   Mostly Cloudy
9:35 AM 64.4 °F 55.4 °F 73% 29.67 in 10.0 mi SSW 20.7 mph 35.7 mph N/A   Overcast
9:55 AM 64.4 °F 53.6 °F 68% 29.67 in 10.0 mi SW 27.6 mph 34.5 mph N/A   Overcast
10:55 AM 68.0 °F 55.4 °F 64% 29.66 in 10.0 mi SSW 27.6 mph 33.4 mph N/A   Partly Cloudy
11:15 AM 69.8 °F 53.6 °F 56% 29.66 in 10.0 mi SSW 24.2 mph 38.0 mph N/A   Partly Cloudy
11:35 AM 69.8 °F 55.4 °F 60% 29.66 in 10.0 mi SSW 20.7 mph 28.8 mph N/A   Mostly Cloudy
11:55 AM 68.0 °F 53.6 °F 60% 29.65 in 10.0 mi SSW 18.4 mph 28.8 mph N/A   Overcast
12:15 PM 69.8 °F 55.4 °F 60% 29.64 in 10.0 mi SSW 20.7 mph 26.5 mph N/A   Mostly Cloudy
12:35 PM 69.8 °F 55.4 °F 60% 29.63 in 10.0 mi SSW 13.8 mph - N/A   Overcast
12:55 PM 71.6 °F 55.4 °F 57% 29.62 in 10.0 mi SSW 17.3 mph 26.5 mph N/A   Overcast
1:35 PM 71.6 °F 53.6 °F 53% 29.61 in 10.0 mi SSW 18.4 mph 26.5 mph N/A   Mostly Cloudy
1:55 PM 73.4 °F 55.4 °F 53% 29.61 in 10.0 mi SSW 19.6 mph 31.1 mph N/A   Overcast
2:15 PM 71.6 °F 53.6 °F 53% 29.61 in 10.0 mi SSW 26.5 mph 29.9 mph N/A   Overcast
2:35 PM 71.6 °F 53.6 °F 53% 29.62 in 10.0 mi SSW 20.7 mph 26.5 mph N/A   Overcast
3:15 PM 71.6 °F 53.6 °F 53% 29.63 in 10.0 mi SW 16.1 mph 23.0 mph N/A   Partly Cloudy
3:35 PM 71.6 °F 53.6 °F 53% 29.64 in 10.0 mi SSW 13.8 mph 26.5 mph N/A   Clear
4:15 PM 69.8 °F 53.6 °F 56% 29.65 in 10.0 mi SSW 11.5 mph 17.3 mph N/A   Clear
4:35 PM 69.8 °F 53.6 °F 56% 29.65 in 10.0 mi SSW 10.4 mph 16.1 mph N/A   Clear
4:55 PM 68.0 °F 53.6 °F 60% 29.67 in 10.0 mi South 6.9 mph - N/A   Clear
5:15 PM 66.2 °F 53.6 °F 64% 29.67 in 10.0 mi South 9.2 mph - N/A   Clear
5:35 PM 66.2 °F 55.4 °F 68% 29.68 in 10.0 mi South 11.5 mph - N/A   Clear
5:55 PM 66.2 °F 57.2 °F 73% 29.69 in 10.0 mi South 11.5 mph - N/A   Clear
6:15 PM 66.2 °F 57.2 °F 73% 29.69 in 10.0 mi South 12.7 mph - N/A   Clear
6:35 PM 66.2 °F 57.2 °F 73% 29.70 in 10.0 mi South 15.0 mph 19.6 mph N/A   Partly Cloudy
6:55 PM 66.2 °F 57.2 °F 73% 29.71 in 10.0 mi South 13.8 mph - N/A   Mostly Cloudy
7:15 PM 66.2 °F 57.2 °F 73% 29.71 in 10.0 mi South 13.8 mph 19.6 mph N/A   Mostly Cloudy
7:35 PM 64.4 °F 57.2 °F 77% 29.71 in 10.0 mi South 13.8 mph 19.6 mph N/A   Partly Cloudy
7:55 PM 64.4 °F 57.2 °F 77% 29.71 in 10.0 mi SSW 13.8 mph - N/A   Clear
8:15 PM 64.4 °F 57.2 °F 77% 29.71 in 10.0 mi South 13.8 mph - N/A   Clear
8:35 PM 64.4 °F 57.2 °F 77% 29.72 in 10.0 mi South 11.5 mph 19.6 mph N/A   Partly Cloudy
9:15 PM 64.4 °F 59.0 °F 83% 29.71 in 10.0 mi SSW 12.7 mph 17.3 mph N/A   Overcast
9:35 PM 66.2 °F 59.0 °F 78% 29.71 in 10.0 mi SSW 16.1 mph 20.7 mph N/A   Overcast
9:55 PM 66.2 °F 59.0 °F 78% 29.70 in 10.0 mi South 13.8 mph 20.7 mph N/A   Scattered Clouds
10:15 PM 66.2 °F 59.0 °F 78% 29.71 in 10.0 mi SSW 18.4 mph 24.2 mph N/A   Partly Cloudy
10:35 PM 66.2 °F 59.0 °F 78% 29.71 in 10.0 mi SSW 18.4 mph 23.0 mph N/A   Scattered Clouds
10:55 PM 66.2 °F 59.0 °F 78% 29.71 in 10.0 mi SSW 16.1 mph - N/A   Mostly Cloudy
11:15 PM 66.2 °F 59.0 °F 78% 29.70 in 10.0 mi South 15.0 mph 21.9 mph N/A   Mostly Cloudy
11:35 PM 66.2 °F 60.8 °F 83% 29.72 in 10.0 mi South 13.8 mph 24.2 mph N/A   Mostly Cloudy
11:55 PM 64.4 °F 60.8 °F 88% 29.71 in 10.0 mi South 15.0 mph 23.0 mph N/A   Partly Cloudy